FW9212 Weather Reports


time (UTC)temp
C
wind
direction
speed
KPH
gust
KPH
rain 1hr
cm
rain 24hr
cm
rain mn
cm
humidity
%
barometer
mb
20260507001127 23 88 8.0 12.9 0.00 0.00 0.00 74 1012.4
20260507000112 24 83 8.0 11.3 0.00 0.00 0.00 73 1012.1
20260506235019 25 68 9.7 12.9 0.00 0.00 0.00 72 1011.8
20260506234024 25 78 6.4 11.3 0.00 0.00 0.00 70 1011.7
20260506233029 26 53 9.7 12.9 0.00 0.00 0.00 69 1011.6
20260506232017 28 352 8.0 9.7 0.00 0.00 0.00 71 1011.3
20260506231022 28 56 3.2 6.4 0.00 0.00 0.00 71 1011.2
20260506230027 28 61 4.8 8.0 0.00 0.00 0.00 71 1011.1
20260506225027 28 27 4.8 8.0 0.00 0.00 0.00 72 1011.1
20260506224020 28 315 4.8 9.7 0.00 0.00 0.00 72 1011.0
20260506223025 29 358 4.8 8.0 0.00 0.00 0.00 72 1010.9
20260506222024 29 358 4.8 8.0 0.00 0.00 0.00 72 1010.9
20260506221018 31 59 4.8 9.7 0.00 0.00 0.00 67 1010.7
20260506220023 31 76 6.4 8.0 0.00 0.00 0.00 65 1010.5
20260506215022 32 79 3.2 6.4 0.00 0.00 0.00 64 1010.5
20260506214035 31 126 3.2 4.8 0.00 0.00 0.00 66 1010.6
20260506213021 31 90 3.2 6.4 0.00 0.00 0.00 67 1010.7
20260506212040 31 109 4.8 6.4 0.00 0.00 0.00 67 1010.9
20260506211019 31 121 3.2 4.8 0.00 0.00 0.00 68 1011.0
20260506210018 31 140 3.2 6.4 0.00 0.00 0.00 65 1011.0
20260506205018 32 84 3.2 8.0 0.00 0.00 0.00 64 1011.1
20260506204017 33 221 3.2 4.8 0.00 0.00 0.00 62 1011.1
20260506203016 32 144 3.2 6.4 0.00 0.00 0.00 66 1011.2
20260506202016 31 50 3.2 4.8 0.00 0.00 0.00 70 1011.4
20260506201015 32 189 3.2 6.4 0.00 0.00 0.00 67 1011.5
20260506200032 31 77 4.8 6.4 0.00 0.00 0.00 67 1011.7
20260506195040 30 89 3.2 4.8 0.00 0.00 0.00 71 1011.8
20260506194025 30 116 3.2 4.8 0.00 0.00 0.00 71 1011.8
20260506193030 31 122 3.2 4.8 0.00 0.00 0.00 70 1011.8
20260506192017 32 111 3.2 4.8 0.00 0.00 0.00 70 1011.9
20260506191042 31 86 3.2 8.0 0.00 0.00 0.00 73 1011.9
20260506190108 30 159 3.2 4.8 0.00 0.00 0.00 74 1012.2
20260506185015 30 193 3.2 6.4 0.00 0.00 0.00 75 1012.3
20260506184020 28 133 4.8 9.7 0.00 0.00 0.00 78 1012.4
20260506183025 27 0.0 1.6 0.00 0.00 0.00 81 1012.6
20260506182031 27 306 1.6 4.8 0.00 0.00 0.00 83 1012.7
20260506181018 27 321 1.6 4.8 0.00 0.00 0.00 83 1012.8
20260506180023 27 0.0 0.0 0.00 0.00 0.00 84 1012.9
20260506175029 27 124 1.6 4.8 0.00 0.00 0.00 85 1012.9
20260506174016 27 338 0.0 4.8 0.00 0.00 0.00 84 1013.0
20260506173021 27 0.0 0.0 0.00 0.00 0.00 86 1013.1
20260506172026 26 0.0 0.0 0.00 0.00 0.00 86 1012.9
20260506171031 26 356 1.6 3.2 0.00 0.00 0.00 89 1013.1
20260506170019 25 0.0 0.0 0.00 0.00 0.00 91 1012.9
20260506165024 25 0.0 0.0 0.00 0.00 0.00 92 1012.9
20260506164030 25 324 0.0 3.2 0.00 0.00 0.00 93 1012.9
20260506163017 25 87 1.6 3.2 0.00 0.00 0.00 93 1012.9
20260506162022 25 293 0.0 3.2 0.00 0.00 0.00 93 1012.8
20260506161047 25 0.0 3.2 0.00 0.00 0.00 93 1012.6
20260506160032 25 113 0.0 3.2 0.00 0.00 0.00 92 1012.5
20260506155100 25 0.0 1.6 0.00 0.00 0.00 91 1012.5
20260506154025 25 0.0 0.0 0.00 0.00 0.00 91 1012.4
20260506153050 25 158 0.0 3.2 0.00 0.00 0.00 90 1012.3
20260506152018 25 0.0 0.0 0.00 0.00 0.00 90 1012.1
20260506151023 25 0.0 0.0 0.00 0.00 0.00 91 1011.9
20260506150028 25 0.0 0.0 0.00 0.00 0.00 91 1011.9
20260506145015 25 0.0 0.0 0.00 0.00 0.00 92 1011.8
20260506144021 25 0.0 0.0 0.00 0.00 0.00 92 1011.7
20260506143026 24 0.0 0.0 0.00 0.00 0.00 92 1011.5
20260506142031 24 0.0 1.6 0.00 0.00 0.00 93 1011.4
20260506141019 24 137 1.6 3.2 0.00 0.00 0.00 93 1011.1
20260506140024 24 140 1.6 4.8 0.00 0.00 0.00 93 1010.9
20260506135028 24 97 1.6 4.8 0.00 0.00 0.00 93 1010.7
20260506134017 24 125 1.6 8.0 0.00 0.00 0.00 94 1010.5
20260506133021 23 140 1.6 4.8 0.00 0.00 0.00 95 1010.5
20260506132026 23 152 1.6 6.4 0.00 0.00 0.00 95 1010.5
20260506131032 23 138 3.2 6.4 0.00 0.00 0.00 95 1010.4
20260506130039 23 137 3.2 8.0 0.00 0.00 0.00 95 1010.2
20260506125024 23 144 3.2 8.0 0.00 0.00 0.00 95 1010.2
20260506124030 23 120 3.2 11.3 0.00 0.00 0.00 95 1010.2
20260506123017 23 131 3.2 6.4 0.00 0.00 0.00 95 1010.2
20260506122023 23 114 1.6 4.8 0.00 0.00 0.00 95 1010.4
20260506121027 23 88 1.6 6.4 0.00 0.00 0.00 95 1010.2
20260506120015 23 0.0 0.0 0.00 0.00 0.00 95 1010.2
20260506115020 23 91 1.6 8.0 0.00 0.00 0.00 95 1010.3
20260506114026 23 180 0.0 1.6 0.00 0.00 0.00 95 1010.3
20260506113031 23 0.0 0.0 0.00 0.00 0.00 95 1010.2
20260506112018 23 0.0 0.0 0.00 0.00 0.00 95 1010.2
20260506111023 23 0.0 0.0 0.00 0.00 0.00 95 1010.2
20260506110028 23 171 1.6 6.4 0.00 0.00 0.00 95 1010.2
20260506105036 23 0.0 0.0 0.00 0.00 0.00 95 1010.1
20260506104021 23 145 1.6 6.4 0.00 0.00 0.00 95 1010.0
20260506103026 23 132 1.6 6.4 0.00 0.00 0.00 95 1010.0
20260506102032 23 200 1.6 6.4 0.00 0.00 0.00 95 1010.0
20260506101039 23 150 4.8 9.7 0.00 0.00 0.00 95 1010.0
20260506100024 23 155 1.6 6.4 0.00 0.00 0.00 95 1010.0
20260506095030 23 151 6.4 8.0 0.00 0.00 0.00 95 1009.9
20260506094017 23 165 6.4 9.7 0.00 0.00 0.00 95 1009.9
20260506093022 23 146 3.2 6.4 0.00 0.00 0.00 95 1010.0
20260506092107 23 141 1.6 4.8 0.00 0.00 0.00 95 1010.0
20260506091027 23 129 4.8 8.0 0.00 0.00 0.00 95 1010.0
20260506090040 23 141 4.8 9.7 0.00 0.00 0.00 95 1010.0
20260506085025 23 143 3.2 9.7 0.00 0.00 0.00 94 1010.1
20260506084024 23 142 6.4 9.7 0.00 0.00 0.00 94 1010.2
20260506083018 23 206 6.4 11.3 0.00 0.00 0.00 93 1010.2
20260506082023 23 175 4.8 9.7 0.00 0.00 0.00 93 1010.2
20260506081102 23 135 6.4 9.7 0.00 0.00 0.00 93 1010.2
20260506073020 24 134 6.4 12.9 0.00 0.00 0.00 93 1010.4
20260506072019 24 118 4.8 8.0 0.00 0.00 0.00 93 1010.4
20260506071018 24 136 6.4 9.7 0.00 0.00 0.00 93 1010.5
20260506062052 24 153 8.0 11.3 0.00 0.00 0.00 93 1010.5
20260506061020 24 129 6.4 11.3 0.00 0.00 0.00 93 1010.5
20260506051015 24 127 8.0 12.9 0.00 0.00 0.00 92 1010.4
20260506045046 25 119 8.0 12.9 0.00 0.00 0.00 91 1010.2
20260506044031 25 122 8.0 11.3 0.00 0.00 0.00 91 1010.2
20260506043018 25 117 8.0 14.5 0.00 0.00 0.00 90 1010.2
20260506042104 25 142 9.7 14.5 0.00 0.00 0.00 90 1010.0
20260506041029 25 137 8.0 12.9 0.00 0.00 0.00 89 1010.0
20260506040016 25 130 6.4 11.3 0.00 0.00 0.00 89 1009.8
20260506035021 25 132 6.4 11.3 0.00 0.00 0.00 88 1009.7
20260506034027 26 178 8.0 11.3 0.00 0.00 0.00 88 1009.6
20260506033032 26 122 8.0 12.9 0.00 0.00 0.00 87 1009.5
20260506032019 26 160 9.7 12.9 0.00 0.00 0.00 87 1009.5
20260506031024 26 15 6.4 11.3 0.00 0.00 0.00 86 1009.5
20260506030030 27 130 3.2 8.0 0.00 0.00 0.00 85 1009.2
20260506025017 27 37 4.8 8.0 0.00 0.00 0.00 85 1009.1
20260506024022 27 113 6.4 12.9 0.00 0.00 0.00 84 1008.9
20260506023027 27 99 4.8 8.0 0.00 0.00 0.00 83 1008.7
20260506022053 27 126 4.8 8.0 0.00 0.00 0.00 81 1008.7
20260506021020 28 110 4.8 6.4 0.00 0.00 0.00 79 1008.6
20260506020025 28 69 4.8 8.0 0.00 0.00 0.00 78 1008.3
20260506015030 28 107 4.8 8.0 0.00 0.00 0.00 77 1008.2
20260506014018 28 117 4.8 9.7 0.00 0.00 0.00 77 1008.1
20260506013023 28 113 1.6 3.2 0.00 0.00 0.00 77 1007.9
20260506012028 28 120 1.6 6.4 0.00 0.00 0.00 76 1007.7
20260506011016 29 130 1.6 4.8 0.00 0.00 0.00 75 1007.5
20260506010021 30 110 1.6 3.2 0.00 0.00 0.00 73 1007.5
20260506005046 30 0.0 0.0 0.00 0.00 0.00 71 1007.4
20260506004031 31 111 1.6 3.2 0.00 0.00 0.00 69 1007.4
20260506003019 31 138 1.6 4.8 0.00 0.00 0.00 68 1007.4
20260506002024 32 101 3.2 4.8 0.00 0.00 0.00 66 1007.4